TimeCET,TemperatureF,Dew PointF,Humidity,Sea Level PressureIn,VisibilityMPH,Wind Direction,Wind SpeedMPH,Gust SpeedMPH,PrecipitationIn,Events,Conditions,WindDirDegrees,DateUTC
12:00 AM,51.8,51.8,100,29.47,3.1,SW,12.7,-,N/A,,Mostly Cloudy,220,2012-10-31 23:00:00
12:30 AM,51.8,51.8,100,29.47,3.1,SW,12.7,24.2,N/A,Rain,Light Rain,230,2012-10-31 23:30:00
1:00 AM,51.8,51.8,100,29.44,3.1,SW,6.9,-,N/A,Rain,Light Rain,230,2012-11-01 00:00:00
1:30 AM,51.8,51.8,100,29.44,3.1,SSW,9.2,-,N/A,Rain,Light Rain,210,2012-11-01 00:30:00
2:00 AM,51.8,51.8,100,29.44,3.1,SW,11.5,-,N/A,Rain,Light Rain,220,2012-11-01 01:00:00
2:30 AM,51.8,51.8,100,29.44,3.1,SW,12.7,24.2,N/A,Rain,Light Rain,230,2012-11-01 01:30:00
3:00 AM,51.8,51.8,100,29.44,3.1,WSW,11.5,24.2,N/A,Rain,Light Rain,240,2012-11-01 02:00:00
3:30 AM,51.8,51.8,100,29.44,3.1,SW,13.8,-,N/A,Rain,Light Rain,220,2012-11-01 02:30:00
4:00 AM,51.8,51.8,100,29.44,3.1,SW,12.7,-,N/A,Rain,Light Rain,230,2012-11-01 03:00:00
4:30 AM,51.8,51.8,100,29.44,3.1,SW,11.5,-,N/A,Rain,Light Rain,230,2012-11-01 03:30:00
5:00 AM,51.8,51.8,100,29.44,3.1,WSW,13.8,25.3,N/A,Rain,Light Rain,250,2012-11-01 04:00:00
5:30 AM,51.8,51.8,100,29.44,3.1,West,12.7,-,N/A,Rain,Light Rain,280,2012-11-01 04:30:00
6:00 AM,50.0,50.0,100,29.44,3.1,West,8.1,-,N/A,Rain,Light Rain,260,2012-11-01 05:00:00
6:30 AM,50.0,50.0,100,29.47,3.1,SW,6.9,-,N/A,Rain,Light Rain,230,2012-11-01 05:30:00
7:00 AM,50.0,50.0,100,29.47,3.1,SW,6.9,-,N/A,,Mostly Cloudy,220,2012-11-01 06:00:00
7:30 AM,50.0,50.0,100,29.47,3.1,SW,5.8,-,N/A,,Mostly Cloudy,230,2012-11-01 06:30:00
8:00 AM,51.8,51.8,100,29.47,3.1,West,8.1,-,N/A,Rain,Light Rain Showers,270,2012-11-01 07:00:00
8:30 AM,51.8,51.8,100,29.50,4.3,West,4.6,-,N/A,Rain,Light Rain Showers,270,2012-11-01 07:30:00
9:00 AM,51.8,51.8,100,29.53,4.3,West,8.1,19.6,N/A,Rain,Light Rain Showers,280,2012-11-01 08:00:00
9:30 AM,51.8,51.8,100,29.53,5.6,West,8.1,20.7,N/A,,Scattered Clouds,270,2012-11-01 08:30:00
10:00 AM,51.8,51.8,100,29.56,6.2,West,8.1,-,N/A,,Mostly Cloudy,260,2012-11-01 09:00:00
10:30 AM,51.8,51.8,100,29.56,6.2,WSW,6.9,-,N/A,,Scattered Clouds,250,2012-11-01 09:30:00
11:00 AM,53.6,51.8,94,29.56,6.2,WSW,8.1,-,N/A,,Scattered Clouds,250,2012-11-01 10:00:00
11:30 AM,51.8,51.8,100,29.59,3.7,WSW,10.4,-,N/A,Rain,Light Rain Showers,240,2012-11-01 10:30:00
12:00 PM,53.6,51.8,94,29.59,6.2,West,9.2,-,N/A,,Scattered Clouds,260,2012-11-01 11:00:00
12:30 PM,53.6,51.8,94,29.59,6.2,West,12.7,-,N/A,,Mostly Cloudy,260,2012-11-01 11:30:00
1:00 PM,53.6,51.8,94,29.62,3.7,WSW,13.8,-,N/A,Rain,Light Rain Showers,250,2012-11-01 12:00:00
1:30 PM,53.6,53.6,100,29.62,5.0,West,9.2,-,N/A,Rain,Light Rain Showers,260,2012-11-01 12:30:00
2:00 PM,53.6,51.8,94,29.62,6.2,West,10.4,21.9,N/A,,Scattered Clouds,270,2012-11-01 13:00:00
2:30 PM,53.6,50.0,88,29.62,6.2,West,12.7,-,N/A,,Scattered Clouds,260,2012-11-01 13:30:00
3:00 PM,55.4,50.0,82,29.62,6.2,West,11.5,-,N/A,,Scattered Clouds,260,2012-11-01 14:00:00
3:30 PM,51.8,50.0,94,29.65,3.7,West,11.5,-,N/A,Rain,Light Rain Showers,280,2012-11-01 14:30:00
4:00 PM,51.8,51.8,100,29.65,3.7,West,11.5,-,N/A,Rain,Light Rain Showers,280,2012-11-01 15:00:00
4:30 PM,53.6,50.0,88,29.65,6.2,West,10.4,-,N/A,,Scattered Clouds,280,2012-11-01 15:30:00
5:00 PM,53.6,48.2,82,29.68,6.2,West,8.1,-,N/A,,Mostly Cloudy,260,2012-11-01 16:00:00
5:30 PM,51.8,50.0,94,29.68,6.2,WSW,4.6,-,N/A,,Mostly Cloudy,240,2012-11-01 16:30:00
6:00 PM,51.8,50.0,94,29.68,6.2,SW,6.9,-,N/A,,Mostly Cloudy,230,2012-11-01 17:00:00
6:30 PM,51.8,48.2,88,29.71,6.2,West,8.1,-,N/A,,Scattered Clouds,260,2012-11-01 17:30:00
7:00 PM,51.8,46.4,82,29.71,6.2,West,5.8,-,N/A,,Scattered Clouds,260,2012-11-01 18:00:00
7:30 PM,50.0,46.4,87,29.74,6.2,SW,4.6,-,N/A,,Scattered Clouds,230,2012-11-01 18:30:00
8:00 PM,50.0,48.2,94,29.74,6.2,SSW,3.5,-,N/A,,Scattered Clouds,200,2012-11-01 19:00:00
8:30 PM,50.0,50.0,100,29.74,6.2,SSW,3.5,-,N/A,,Scattered Clouds,210,2012-11-01 19:30:00
9:00 PM,50.0,50.0,100,29.74,6.2,SW,3.5,-,N/A,,Scattered Clouds,220,2012-11-01 20:00:00
9:30 PM,50.0,50.0,100,29.74,6.2,SW,3.5,-,N/A,,Scattered Clouds,220,2012-11-01 20:30:00
10:00 PM,51.8,50.0,94,29.74,6.2,SW,5.8,-,N/A,,Scattered Clouds,220,2012-11-01 21:00:00
10:30 PM,51.8,50.0,94,29.77,5.0,SW,4.6,-,N/A,Rain,Light Rain,220,2012-11-01 21:30:00
11:00 PM,50.0,50.0,100,29.77,6.2,SW,3.5,-,N/A,,Mostly Cloudy,230,2012-11-01 22:00:00
11:30 PM,50.0,50.0,100,29.77,6.2,SW,4.6,-,N/A,,Mostly Cloudy,230,2012-11-01 22:30:00